Weather History for Hebron, NE

Change the Weather History Date:

Saturday, October 13, 2012

  Actual Average Record
Temperature  
Mean Temperature 64 °F -  
Max Temperature 76 °F 68 °F 95 °F (1975)
Min Temperature 52 °F 41 °F 28 °F (1977)
Degree Days  
Heating Degree Days 2    
Growing Degree Days 14 (Base 50)    
Moisture  
Dew Point 59 °F    
Average Humidity 86    
Maximum Humidity 98    
Minimum Humidity 68    
Precipitation  
Precipitation 0.73 in - - ()
Sea Level Pressure  
Sea Level Pressure 29.74 in    
Wind  
Wind Speed 5 mph (SSW)    
Max Wind Speed 17 mph    
Max Gust Speed 28 mph    
Visibility 9 miles    
Events Rain , Thunderstorm    
Averages and records for this station are not official NWS values.
T = Trace of Precipitation, MM = Missing Value Source: NWS Daily Summary

Daily Weather History Graph

Daily Weather History Graph

Search for Another Location

Airport:

Trip Planner

Search our weather history database for the weather conditions in past years. The results will help you decide how hot, cold, wet, or windy it might be!

Date:

Astronomy

Oct. 13, 2012 Rise Set
Actual Time 7:39 AM CDT 6:52 PM CDT
Civil Twilight 7:12 AM CDT 7:20 PM CDT
Nautical Twilight 6:40 AM CDT 7:51 PM CDT
Astronomical Twilight 6:09 AM CDT 8:22 PM CDT
Moon 5:30 AM CDT (10/13) 5:37 PM CDT (10/13)
Length of Visible Light 12h 07m
Length of Day
11h 13m
Waning Crescent, 5% of the Moon is Illuminated
Oct 13
Waning Crescent
Oct 15
New
Oct 21
First Quarter
Oct 29
Full
Nov 6
Last Quarter

Hourly Weather History & Observations

Time (CDT) Temp. Dew Point Humidity Pressure Visibility Wind Dir Wind Speed Gust Speed Precip Events Conditions
12:55 AM 52.7 °F 51.8 °F 97% 29.93 in 2.5 mi Calm Calm - N/A   Overcast
1:35 AM 53.4 °F 52.7 °F 97% 29.91 in 1.2 mi Calm Calm - N/A Thunderstorm Overcast
1:55 AM 54.5 °F 53.8 °F 97% 29.90 in 1.8 mi Calm Calm - N/A Thunderstorm Overcast
2:15 AM 55.6 °F 55.0 °F 98% 29.89 in 1.5 mi SSE 5.8 mph - N/A Thunderstorm Overcast
2:35 AM 57.2 °F 56.7 °F 98% 29.88 in 1.5 mi SSE 6.9 mph - N/A   Overcast
2:55 AM 59.0 °F 58.5 °F 98% 29.87 in 2.0 mi South 12.7 mph - N/A Rain , Thunderstorm Light Thunderstorms and Rain
3:15 AM 58.5 °F 57.7 °F 97% 29.93 in 2.5 mi West 10.4 mph 27.6 mph 0.17 in Rain , Thunderstorm Heavy Thunderstorms and Rain
3:35 AM 57.4 °F 56.3 °F 96% 29.90 in 3.0 mi West 5.8 mph - 0.38 in Rain , Thunderstorm Thunderstorms and Rain
3:55 AM 57.0 °F 55.9 °F 96% 29.89 in 5.0 mi South 4.6 mph - 0.45 in Rain , Thunderstorm Thunderstorms and Rain
4:15 AM 58.3 °F 57.4 °F 97% 29.85 in 7.0 mi South 11.5 mph 16.1 mph 0.04 in Rain , Thunderstorm Thunderstorms and Rain
4:35 AM 57.6 °F 56.5 °F 96% 29.81 in 10.0 mi SSE 11.5 mph - 0.06 in   Mostly Cloudy
4:55 AM 58.5 °F 57.4 °F 96% 29.82 in 10.0 mi South 12.7 mph 25.3 mph 0.06 in Rain , Thunderstorm Light Thunderstorms and Rain
5:15 AM 59.5 °F 57.2 °F 92% 29.79 in 10.0 mi South 10.4 mph 19.6 mph 0.01 in Rain Light Rain
5:35 AM 59.2 °F 57.2 °F 93% 29.78 in 10.0 mi South 9.2 mph - 0.01 in   Scattered Clouds
5:55 AM 59.4 °F 57.2 °F 93% 29.80 in 10.0 mi South 9.2 mph - 0.01 in   Clear
6:15 AM 59.0 °F 57.2 °F 94% 29.81 in 10.0 mi WSW 4.6 mph - N/A   Clear
6:35 AM 58.8 °F 57.2 °F 94% 29.80 in 10.0 mi SSW 3.5 mph - N/A   Clear
6:55 AM 59.2 °F 57.4 °F 94% 29.81 in 10.0 mi West 6.9 mph - N/A Rain Light Rain
7:15 AM 58.3 °F 56.3 °F 93% 29.81 in 10.0 mi West 3.5 mph - N/A   Scattered Clouds
7:35 AM 58.1 °F 56.3 °F 94% 29.81 in 10.0 mi Calm Calm - N/A   Scattered Clouds
7:55 AM 57.6 °F 55.6 °F 93% 29.78 in 10.0 mi Calm Calm - N/A   Clear
8:15 AM 56.5 °F 55.4 °F 96% 29.79 in 10.0 mi Calm Calm - N/A   Clear
8:55 AM 56.5 °F 55.6 °F 97% 29.79 in 10.0 mi Calm Calm - N/A   Clear
9:35 AM 61.2 °F 59.2 °F 93% 29.75 in 10.0 mi South 3.5 mph - N/A   Clear
9:55 AM 63.9 °F 60.6 °F 89% 29.77 in 10.0 mi SSW 5.8 mph - N/A   Clear
10:15 AM 64.4 °F 61.0 °F 89% 29.78 in 10.0 mi SSW 10.4 mph 16.1 mph N/A   Clear
10:35 AM 66.0 °F 61.3 °F 85% 29.77 in 10.0 mi SSW 6.9 mph - N/A   Scattered Clouds
10:55 AM 67.6 °F 61.7 °F 81% 29.77 in 10.0 mi SSW 9.2 mph - N/A   Clear
11:15 AM 69.4 °F 62.1 °F 77% 29.77 in 10.0 mi South 11.5 mph 17.3 mph N/A   Clear
11:35 AM 70.2 °F 62.2 °F 76% 29.77 in 10.0 mi SSW 15.0 mph 21.9 mph N/A   Scattered Clouds
11:55 AM 70.5 °F 62.6 °F 76% 29.76 in 10.0 mi SSW 13.8 mph 17.3 mph N/A   Overcast
12:15 PM 70.0 °F 61.5 °F 74% 29.76 in 10.0 mi South 9.2 mph 18.4 mph N/A   Overcast
12:35 PM 68.9 °F 61.7 °F 78% 29.75 in 10.0 mi South 10.4 mph 16.1 mph N/A   Overcast
12:55 PM 68.2 °F 61.7 °F 80% 29.73 in 10.0 mi South 10.4 mph - N/A   Overcast
1:15 PM 68.9 °F 62.4 °F 80% 29.72 in 10.0 mi South 12.7 mph 18.4 mph N/A   Overcast
1:35 PM 71.2 °F 63.1 °F 75% 29.71 in 10.0 mi South 16.1 mph 21.9 mph N/A   Overcast
1:55 PM 71.6 °F 63.7 °F 76% 29.70 in 10.0 mi South 17.3 mph 21.9 mph N/A   Mostly Cloudy
2:15 PM 74.3 °F 64.4 °F 71% 29.69 in 10.0 mi South 12.7 mph - N/A   Mostly Cloudy
2:35 PM 73.6 °F 64.6 °F 73% 29.68 in 10.0 mi South 9.2 mph 18.4 mph N/A   Mostly Cloudy
2:55 PM 72.5 °F 64.9 °F 77% 29.67 in 10.0 mi South 6.9 mph - N/A   Overcast
3:35 PM 73.9 °F 65.3 °F 74% 29.66 in 10.0 mi SSW 9.2 mph - N/A   Overcast
3:55 PM 73.9 °F 64.6 °F 72% 29.66 in 10.0 mi SSW 6.9 mph - N/A   Overcast
4:15 PM 73.9 °F 64.8 °F 73% 29.66 in 10.0 mi SW 4.6 mph - N/A   Overcast
4:35 PM 75.2 °F 64.6 °F 69% 29.66 in 10.0 mi WSW 6.9 mph - N/A   Overcast
4:55 PM 75.7 °F 64.6 °F 68% 29.64 in 10.0 mi WSW 4.6 mph - N/A   Scattered Clouds
5:15 PM 75.4 °F 64.4 °F 69% 29.63 in 10.0 mi West 3.5 mph - N/A   Clear
5:35 PM 73.6 °F 64.4 °F 73% 29.60 in 10.0 mi Calm Calm - N/A   Clear
5:55 PM 72.0 °F 63.9 °F 76% 29.60 in 10.0 mi Calm Calm - N/A   Clear
6:15 PM 70.7 °F 64.0 °F 79% 29.62 in 10.0 mi Calm Calm - N/A Thunderstorm Scattered Clouds
6:35 PM 69.8 °F 64.0 °F 82% 29.63 in 10.0 mi Calm Calm - N/A Rain , Thunderstorm Light Thunderstorms and Rain
7:35 PM 62.2 °F 58.5 °F 87% 29.59 in 10.0 mi ESE 4.6 mph - N/A   Mostly Cloudy
7:55 PM 61.7 °F 58.1 °F 88% 29.58 in 10.0 mi SE 5.8 mph - N/A   Clear
8:15 PM 61.7 °F 57.2 °F 85% 29.58 in 10.0 mi SSE 5.8 mph - N/A   Clear
8:55 PM 61.2 °F 57.0 °F 86% 29.61 in 10.0 mi Calm Calm - N/A   Clear
9:15 PM 59.7 °F 56.3 °F 88% 29.63 in 10.0 mi Calm Calm - N/A   Scattered Clouds
9:35 PM 59.0 °F 56.3 °F 91% 29.64 in 10.0 mi Calm Calm - N/A   Scattered Clouds
9:55 PM 59.2 °F 56.8 °F 92% 29.65 in 10.0 mi Calm Calm - N/A   Scattered Clouds
10:15 PM 59.9 °F 57.2 °F 91% 29.65 in 10.0 mi Calm Calm - N/A   Mostly Cloudy
11:15 PM 59.4 °F 56.8 °F 91% 29.64 in 10.0 mi Calm Calm - 0.01 in Rain Rain
11:35 PM 59.5 °F 57.4 °F 93% 29.66 in 3.0 mi ENE 5.8 mph - 0.21 in Rain , Thunderstorm Heavy Thunderstorms and Rain